owner,sensor,date,latitude,longitude,vertical_datum,direction_of_sea_water_velocity,sea_water_speed,upward_sea_water_velocity,qcFlag 
TABS,ioos:station:wmo:42046:1,1999-03-01T00:00:00Z,27.8903,-94.0367,2.0,0.0,0.0,-99999.0,'11133222,11111222,99999999' 
TABS,ioos:station:wmo:42046:1,1999-03-01T19:00:00Z,27.8903,-94.0367,2.0,7.193663693,10.38171469,-99999.0,'11111222,11111222,99999999' 
TABS,ioos:station:wmo:42046:1,1999-03-01T19:30:00Z,27.8903,-94.0367,2.0,35.51911163,35.62990317,-99999.0,'11111222,11111222,99999999' 
TABS,ioos:station:wmo:42046:1,1999-03-01T20:30:00Z,27.8903,-94.0367,2.0,43.00801631,32.546582,-99999.0,'11111222,11111222,99999999' 
TABS,ioos:station:wmo:42046:1,1999-03-01T21:00:00Z,27.8903,-94.0367,2.0,52.30584768,33.36345306,-99999.0,'11111222,11111222,99999999' 
TABS,ioos:station:wmo:42046:1,1999-03-01T21:30:00Z,27.8903,-94.0367,2.0,42.64358939,34.3944763,-99999.0,'11111222,11111222,99999999' 
TABS,ioos:station:wmo:42046:1,1999-03-01T22:00:00Z,27.8903,-94.0367,2.0,45.47755789,33.94230399,-99999.0,'11111222,11111222,99999999' 
TABS,ioos:station:wmo:42046:1,1999-03-01T22:30:00Z,27.8903,-94.0367,2.0,47.98961842,36.60723972,-99999.0,'11111222,11111222,99999999' 
TABS,ioos:station:wmo:42046:1,1999-03-01T23:30:00Z,27.8903,-94.0367,2.0,53.36297813,39.38032504,-99999.0,'11111222,11111222,99999999' 
TABS,ioos:station:wmo:42046:1,1999-03-02T00:00:00Z,27.8903,-94.0367,2.0,58.09870332,40.8735856,-99999.0,'11111222,11111222,99999999' 
TABS,ioos:station:wmo:42046:1,1999-03-02T00:30:00Z,27.8903,-94.0367,2.0,66.1398806,34.11568554,-99999.0,'11111222,11111222,99999999' 
TABS,ioos:station:wmo:42046:1,1999-03-02T01:00:00Z,27.8903,-94.0367,2.0,67.13773229,29.08487579,-99999.0,'11111222,11111222,99999999' 
TABS,ioos:station:wmo:42046:1,1999-03-02T01:30:00Z,27.8903,-94.0367,2.0,67.53684004,33.76166465,-99999.0,'11111222,11111222,99999999' 
TABS,ioos:station:wmo:42046:1,1999-03-02T02:00:00Z,27.8903,-94.0367,2.0,74.28577452,30.64539117,-99999.0,'11111222,11111222,99999999' 
TABS,ioos:station:wmo:42046:1,1999-03-02T02:30:00Z,27.8903,-94.0367,2.0,73.73983332,27.5,-99999.0,'11111222,11111222,99999999' 
TABS,ioos:station:wmo:42046:1,1999-03-02T03:00:00Z,27.8903,-94.0367,2.0,64.46796891,32.24934108,-99999.0,'11111222,11111222,99999999' 
TABS,ioos:station:wmo:42046:1,1999-03-02T03:30:00Z,27.8903,-94.0367,2.0,65.57258085,28.77585794,-99999.0,'11111222,11111222,99999999' 
TABS,ioos:station:wmo:42046:1,1999-03-02T04:00:00Z,27.8903,-94.0367,2.0,69.16096385,33.16986584,-99999.0,'11111222,11111222,99999999' 
TABS,ioos:station:wmo:42046:1,1999-03-02T04:30:00Z,27.8903,-94.0367,2.0,67.66581989,33.94657567,-99999.0,'11111222,11111222,99999999' 
TABS,ioos:station:wmo:42046:1,1999-03-02T05:00:00Z,27.8903,-94.0367,2.0,59.87382115,31.67917297,-99999.0,'11111222,11111222,99999999' 
TABS,ioos:station:wmo:42046:1,1999-03-02T05:30:00Z,27.8903,-94.0367,2.0,74.38904797,28.24181297,-99999.0,'11111222,11111222,99999999' 
TABS,ioos:station:wmo:42046:1,1999-03-02T06:00:00Z,27.8903,-94.0367,2.0,76.69830867,32.16286679,-99999.0,'11111222,11111222,99999999' 
TABS,ioos:station:wmo:42046:1,1999-03-02T06:30:00Z,27.8903,-94.0367,2.0,59.37828257,31.60775221,-99999.0,'11111222,11111222,99999999' 
TABS,ioos:station:wmo:42046:1,1999-03-02T07:00:00Z,27.8903,-94.0367,2.0,64.29010634,32.96331294,-99999.0,'11111222,11111222,99999999' 
TABS,ioos:station:wmo:42046:1,1999-03-02T07:30:00Z,27.8903,-94.0367,2.0,68.68757617,23.93700065,-99999.0,'11111222,11111222,99999999' 
TABS,ioos:station:wmo:42046:1,1999-03-02T08:00:00Z,27.8903,-94.0367,2.0,57.77131793,32.6269827,-99999.0,'11111222,11111222,99999999' 
TABS,ioos:station:wmo:42046:1,1999-03-02T08:30:00Z,27.8903,-94.0367,2.0,66.82174538,37.09406961,-99999.0,'11111222,11111222,99999999' 
TABS,ioos:station:wmo:42046:1,1999-03-02T09:00:00Z,27.8903,-94.0367,2.0,81.96836269,32.92294033,-99999.0,'11111222,11111222,99999999' 
TABS,ioos:station:wmo:42046:1,1999-03-02T09:30:00Z,27.8903,-94.0367,2.0,91.32197257,26.00692216,-99999.0,'11111222,11111222,99999999' 
TABS,ioos:station:wmo:42046:1,1999-03-02T10:00:00Z,27.8903,-94.0367,2.0,78.14443766,26.77106647,-99999.0,'11111222,11111222,99999999' 
TABS,ioos:station:wmo:42046:1,1999-03-02T10:30:00Z,27.8903,-94.0367,2.0,66.28270446,26.10478883,-99999.0,'11111222,11111222,99999999' 
TABS,ioos:station:wmo:42046:1,1999-03-02T11:00:00Z,27.8903,-94.0367,2.0,71.56509429,29.40918224,-99999.0,'11111222,11111222,99999999' 
TABS,ioos:station:wmo:42046:1,1999-03-02T11:30:00Z,27.8903,-94.0367,2.0,81.95712457,27.8741816,-99999.0,'11111222,11111222,99999999' 
TABS,ioos:station:wmo:42046:1,1999-03-02T12:00:00Z,27.8903,-94.0367,2.0,87.10549408,17.82273829,-99999.0,'11111222,11111222,99999999' 
TABS,ioos:station:wmo:42046:1,1999-03-02T12:30:00Z,27.8903,-94.0367,2.0,73.63690151,24.49203952,-99999.0,'11111222,11111222,99999999' 
TABS,ioos:station:wmo:42046:1,1999-03-02T13:00:00Z,27.8903,-94.0367,2.0,80.19072069,21.71750446,-99999.0,'11111222,11111222,99999999' 
TABS,ioos:station:wmo:42046:1,1999-03-02T13:30:00Z,27.8903,-94.0367,2.0,66.38710403,19.97223072,-99999.0,'11111222,11111222,99999999' 
TABS,ioos:station:wmo:42046:1,1999-03-02T14:00:00Z,27.8903,-94.0367,2.0,106.6992052,17.74852107,-99999.0,'11111222,11111222,99999999' 
TABS,ioos:station:wmo:42046:1,1999-03-02T14:30:00Z,27.8903,-94.0367,2.0,79.1144984,21.18112367,-99999.0,'11111222,11111222,99999999' 
TABS,ioos:station:wmo:42046:1,1999-03-02T15:00:00Z,27.8903,-94.0367,2.0,82.66890176,17.24093965,-99999.0,'11111222,11111222,99999999' 
TABS,ioos:station:wmo:42046:1,1999-03-02T15:30:00Z,27.8903,-94.0367,2.0,78.74632128,19.98424379,-99999.0,'11111222,11111222,99999999' 
TABS,ioos:station:wmo:42046:1,1999-03-02T16:00:00Z,27.8903,-94.0367,2.0,71.47919383,21.0924157,-99999.0,'11111222,11111222,99999999' 
TABS,ioos:station:wmo:42046:1,1999-03-02T16:30:00Z,27.8903,-94.0367,2.0,83.17077167,16.81933411,-99999.0,'11111222,11111222,99999999' 
TABS,ioos:station:wmo:42046:1,1999-03-02T17:00:00Z,27.8903,-94.0367,2.0,78.92982331,18.74886663,-99999.0,'11111222,11111222,99999999' 
TABS,ioos:station:wmo:42046:1,1999-03-02T17:30:00Z,27.8903,-94.0367,2.0,74.47592531,20.54969586,-99999.0,'11111222,11111222,99999999' 
TABS,ioos:station:wmo:42046:1,1999-03-02T18:00:00Z,27.8903,-94.0367,2.0,83.48021349,21.13669794,-99999.0,'11111222,11111222,99999999' 
TABS,ioos:station:wmo:42046:1,1999-03-02T18:30:00Z,27.8903,-94.0367,2.0,71.56509429,25.61444905,-99999.0,'11111222,11111222,99999999' 
TABS,ioos:station:wmo:42046:1,1999-03-02T19:00:00Z,27.8903,-94.0367,2.0,74.26506516,26.18110005,-99999.0,'11111222,11111222,99999999' 
TABS,ioos:station:wmo:42046:1,1999-03-02T19:30:00Z,27.8903,-94.0367,2.0,69.30804734,34.52723563,-99999.0,'11111222,11111222,99999999' 
TABS,ioos:station:wmo:42046:1,1999-03-02T20:00:00Z,27.8903,-94.0367,2.0,89.12398806,32.70382241,-99999.0,'11111222,11111222,99999999' 
TABS,ioos:station:wmo:42046:1,1999-03-02T20:30:00Z,27.8903,-94.0367,2.0,82.61397412,27.22590678,-99999.0,'11111222,11111222,99999999' 
TABS,ioos:station:wmo:42046:1,1999-03-02T21:00:00Z,27.8903,-94.0367,2.0,92.16107443,31.82263345,-99999.0,'11111222,11111222,99999999' 
TABS,ioos:station:wmo:42046:1,1999-03-02T21:30:00Z,27.8903,-94.0367,2.0,80.81793428,36.97377449,-99999.0,'11111222,11111222,99999999' 
TABS,ioos:station:wmo:42046:1,1999-03-02T22:00:00Z,27.8903,-94.0367,2.0,87.81035077,34.02484386,-99999.0,'11111222,11111222,99999999' 
TABS,ioos:station:wmo:42046:1,1999-03-02T22:30:00Z,27.8903,-94.0367,2.0,103.7114615,29.95363083,-99999.0,'11111222,11111222,99999999' 
TABS,ioos:station:wmo:42046:1,1999-03-02T23:00:00Z,27.8903,-94.0367,2.0,105.5854378,34.98642594,-99999.0,'11111222,11111222,99999999' 
TABS,ioos:station:wmo:42046:1,1999-03-02T23:30:00Z,27.8903,-94.0367,2.0,100.3416211,41.77870271,-99999.0,'11111222,11111222,99999999' 
TABS,ioos:station:wmo:42046:1,1999-03-03T00:00:00Z,27.8903,-94.0367,2.0,104.0750551,35.77401291,-99999.0,'11111222,11111222,99999999' 
TABS,ioos:station:wmo:42046:1,1999-03-03T00:30:00Z,27.8903,-94.0367,2.0,100.9783726,37.28230143,-99999.0,'11111222,11111222,99999999' 
TABS,ioos:station:wmo:42046:1,1999-03-03T01:00:00Z,27.8903,-94.0367,2.0,104.2120715,39.50923943,-99999.0,'11111222,11111222,99999999' 
TABS,ioos:station:wmo:42046:1,1999-03-03T01:30:00Z,27.8903,-94.0367,2.0,102.3130347,40.327658,-99999.0,'11111222,11111222,99999999' 
TABS,ioos:station:wmo:42046:1,1999-03-03T02:00:00Z,27.8903,-94.0367,2.0,90.0,43.9,-99999.0,'11111222,11111222,99999999' 
TABS,ioos:station:wmo:42046:1,1999-03-03T02:30:00Z,27.8903,-94.0367,2.0,97.96069538,38.26878624,-99999.0,'11111222,11111222,99999999' 
TABS,ioos:station:wmo:42046:1,1999-03-03T03:00:00Z,27.8903,-94.0367,2.0,95.51868121,41.59278784,-99999.0,'11111222,11111222,99999999' 
TABS,ioos:station:wmo:42046:1,1999-03-03T03:30:00Z,27.8903,-94.0367,2.0,97.45275097,34.69308288,-99999.0,'11111222,11111222,99999999' 
TABS,ioos:station:wmo:42046:1,1999-03-03T04:00:00Z,27.8903,-94.0367,2.0,105.9453586,38.58458241,-99999.0,'11111222,11111222,99999999' 
TABS,ioos:station:wmo:42046:1,1999-03-03T04:30:00Z,27.8903,-94.0367,2.0,100.7173211,36.02846097,-99999.0,'11111222,11111222,99999999' 
TABS,ioos:station:wmo:42046:1,1999-03-03T05:00:00Z,27.8903,-94.0367,2.0,100.9825059,44.61714917,-99999.0,'11111222,11111222,99999999' 
TABS,ioos:station:wmo:42046:1,1999-03-03T05:30:00Z,27.8903,-94.0367,2.0,113.0565399,42.38584669,-99999.0,'11111222,11111222,99999999' 
TABS,ioos:station:wmo:42046:1,1999-03-03T06:00:00Z,27.8903,-94.0367,2.0,112.5892163,43.21539078,-99999.0,'11111222,11111222,99999999' 
TABS,ioos:station:wmo:42046:1,1999-03-03T06:30:00Z,27.8903,-94.0367,2.0,121.6753947,44.18144407,-99999.0,'11111222,11111222,99999999' 
TABS,ioos:station:wmo:42046:1,1999-03-03T07:00:00Z,27.8903,-94.0367,2.0,129.4666454,45.4666911,-99999.0,'11111222,11111222,99999999' 
TABS,ioos:station:wmo:42046:1,1999-03-03T07:30:00Z,27.8903,-94.0367,2.0,105.1884215,30.15327511,-99999.0,'11111222,11111222,99999999' 
TABS,ioos:station:wmo:42046:1,1999-03-03T08:00:00Z,27.8903,-94.0367,2.0,125.9867115,41.52493227,-99999.0,'11111222,11111222,99999999' 
TABS,ioos:station:wmo:42046:1,1999-03-03T08:30:00Z,27.8903,-94.0367,2.0,137.5609323,44.30914127,-99999.0,'11111222,11111222,99999999' 
TABS,ioos:station:wmo:42046:1,1999-03-03T09:00:00Z,27.8903,-94.0367,2.0,117.771035,21.24735278,-99999.0,'11111222,11111222,99999999' 
TABS,ioos:station:wmo:42046:1,1999-03-03T09:30:00Z,27.8903,-94.0367,2.0,133.681302,27.65519843,-99999.0,'11111222,11111222,99999999' 
TABS,ioos:station:wmo:42046:1,1999-03-03T10:00:00Z,27.8903,-94.0367,2.0,130.8486192,35.16475508,-99999.0,'11111222,11111222,99999999' 
TABS,ioos:station:wmo:42046:1,1999-03-03T10:30:00Z,27.8903,-94.0367,2.0,146.9759992,38.16595341,-99999.0,'11111222,11111222,99999999' 
TABS,ioos:station:wmo:42046:1,1999-03-03T11:00:00Z,27.8903,-94.0367,2.0,122.905166,2.024845673,-99999.0,'11133222,11111222,99999999' 
TABS,ioos:station:wmo:42046:1,1999-03-03T11:30:00Z,27.8903,-94.0367,2.0,138.4776732,38.46673888,-99999.0,'11111222,11111222,99999999' 
TABS,ioos:station:wmo:42046:1,1999-03-03T12:00:00Z,27.8903,-94.0367,2.0,155.9831336,32.18648785,-99999.0,'11111222,11111222,99999999' 
TABS,ioos:station:wmo:42046:1,1999-03-03T12:30:00Z,27.8903,-94.0367,2.0,128.4372116,24.12902816,-99999.0,'11111222,11111222,99999999' 
TABS,ioos:station:wmo:42046:1,1999-03-03T13:00:00Z,27.8903,-94.0367,2.0,132.8788033,30.56795708,-99999.0,'11111222,11111222,99999999' 
TABS,ioos:station:wmo:42046:1,1999-03-03T13:30:00Z,27.8903,-94.0367,2.0,144.5908333,25.8884144,-99999.0,'11111222,11111222,99999999' 
TABS,ioos:station:wmo:42046:1,1999-03-03T14:00:00Z,27.8903,-94.0367,2.0,152.9727488,27.72814455,-99999.0,'11111222,11111222,99999999' 
TABS,ioos:station:wmo:42046:1,1999-03-03T14:30:00Z,27.8903,-94.0367,2.0,171.9827152,21.51023012,-99999.0,'11111222,11111222,99999999' 
TABS,ioos:station:wmo:42046:1,1999-03-03T15:00:00Z,27.8903,-94.0367,2.0,144.2272404,19.84363878,-99999.0,'11111222,11111222,99999999' 
TABS,ioos:station:wmo:42046:1,1999-03-03T15:30:00Z,27.8903,-94.0367,2.0,115.3715024,10.73545528,-99999.0,'11111222,11111222,99999999' 
TABS,ioos:station:wmo:42046:1,1999-03-03T16:00:00Z,27.8903,-94.0367,2.0,135.5615988,14.42567156,-99999.0,'11111222,11111222,99999999' 
TABS,ioos:station:wmo:42046:1,1999-03-03T16:30:00Z,27.8903,-94.0367,2.0,163.5038396,24.30020576,-99999.0,'11111222,11111222,99999999' 
TABS,ioos:station:wmo:42046:1,1999-03-03T17:00:00Z,27.8903,-94.0367,2.0,160.6153192,5.724508713,-99999.0,'11133222,11111222,99999999' 
TABS,ioos:station:wmo:42046:1,1999-03-03T17:30:00Z,27.8903,-94.0367,2.0,157.8735065,9.823441352,-99999.0,'11133222,11111222,99999999' 
TABS,ioos:station:wmo:42046:1,1999-03-03T18:00:00Z,27.8903,-94.0367,2.0,78.31065816,2.961418579,-99999.0,'11133222,11111222,99999999' 
TABS,ioos:station:wmo:42046:1,1999-03-03T18:30:00Z,27.8903,-94.0367,2.0,77.6309674,11.67090399,-99999.0,'11111222,11111222,99999999' 
TABS,ioos:station:wmo:42046:1,1999-03-03T19:00:00Z,27.8903,-94.0367,2.0,129.6989806,6.88839604,-99999.0,'11133222,11111222,99999999' 
TABS,ioos:station:wmo:42046:1,1999-03-03T19:30:00Z,27.8903,-94.0367,2.0,93.70841949,10.82266141,-99999.0,'11111222,11111222,99999999' 
TABS,ioos:station:wmo:42046:1,1999-03-03T20:00:00Z,27.8903,-94.0367,2.0,65.61368592,8.23468275,-99999.0,'11133222,11111222,99999999' 
TABS,ioos:station:wmo:42046:1,1999-03-03T20:30:00Z,27.8903,-94.0367,2.0,73.16256675,15.88080602,-99999.0,'11111222,11111222,99999999' 
TABS,ioos:station:wmo:42046:1,1999-03-03T21:00:00Z,27.8903,-94.0367,2.0,74.05464139,16.74425275,-99999.0,'11111222,11111222,99999999' 
TABS,ioos:station:wmo:42046:1,1999-03-03T21:30:00Z,27.8903,-94.0367,2.0,110.4803094,17.72004515,-99999.0,'11111222,11111222,99999999' 
TABS,ioos:station:wmo:42046:1,1999-03-03T22:00:00Z,27.8903,-94.0367,2.0,84.07543187,21.31384527,-99999.0,'11111222,11111222,99999999' 
TABS,ioos:station:wmo:42046:1,1999-03-03T22:30:00Z,27.8903,-94.0367,2.0,111.3705723,14.81890684,-99999.0,'11111222,11111222,99999999' 
TABS,ioos:station:wmo:42046:1,1999-03-03T23:00:00Z,27.8903,-94.0367,2.0,90.0,21.3,-99999.0,'11111222,11111222,99999999' 
TABS,ioos:station:wmo:42046:1,1999-03-03T23:30:00Z,27.8903,-94.0367,2.0,89.53607779,24.7008097,-99999.0,'11111222,11111222,99999999' 
TABS,ioos:station:wmo:42046:1,1999-03-04T00:00:00Z,27.8903,-94.0367,2.0,101.4410171,25.71089263,-99999.0,'11111222,11111222,99999999' 
TABS,ioos:station:wmo:42046:1,1999-03-04T00:30:00Z,27.8903,-94.0367,2.0,93.73565039,29.16196153,-99999.0,'11111222,11111222,99999999' 
TABS,ioos:station:wmo:42046:1,1999-03-04T01:00:00Z,27.8903,-94.0367,2.0,85.94899856,35.38841618,-99999.0,'11111222,11111222,99999999' 
TABS,ioos:station:wmo:42046:1,1999-03-04T01:30:00Z,27.8903,-94.0367,2.0,108.4349057,37.31487639,-99999.0,'11111222,11111222,99999999' 
TABS,ioos:station:wmo:42046:1,1999-03-04T02:00:00Z,27.8903,-94.0367,2.0,98.7216774,35.6117958,-99999.0,'11111222,11111222,99999999' 
TABS,ioos:station:wmo:42046:1,1999-03-04T02:30:00Z,27.8903,-94.0367,2.0,102.2828099,40.42536333,-99999.0,'11111222,11111222,99999999' 
TABS,ioos:station:wmo:42046:1,1999-03-04T03:00:00Z,27.8903,-94.0367,2.0,104.9975762,39.02947604,-99999.0,'11111222,11111222,99999999' 
TABS,ioos:station:wmo:42046:1,1999-03-04T03:30:00Z,27.8903,-94.0367,2.0,96.32468742,40.84862299,-99999.0,'11111222,11111222,99999999' 
TABS,ioos:station:wmo:42046:1,1999-03-04T04:00:00Z,27.8903,-94.0367,2.0,102.5714938,43.64642024,-99999.0,'11111222,11111222,99999999' 
TABS,ioos:station:wmo:42046:1,1999-03-04T04:30:00Z,27.8903,-94.0367,2.0,100.0079564,46.60922655,-99999.0,'11111222,11111222,99999999' 
TABS,ioos:station:wmo:42046:1,1999-03-04T05:00:00Z,27.8903,-94.0367,2.0,100.9615379,48.38274486,-99999.0,'11111222,11111222,99999999' 
TABS,ioos:station:wmo:42046:1,1999-03-04T05:30:00Z,27.8903,-94.0367,2.0,107.4179301,48.10582085,-99999.0,'11111222,11111222,99999999' 
TABS,ioos:station:wmo:42046:1,1999-03-04T06:00:00Z,27.8903,-94.0367,2.0,102.0493281,44.0709655,-99999.0,'11111222,11111222,99999999' 
TABS,ioos:station:wmo:42046:1,1999-03-04T06:30:00Z,27.8903,-94.0367,2.0,103.9723003,43.48666462,-99999.0,'11111222,11111222,99999999' 
TABS,ioos:station:wmo:42046:1,1999-03-04T07:00:00Z,27.8903,-94.0367,2.0,110.8423139,42.15874761,-99999.0,'11111222,11111222,99999999' 
TABS,ioos:station:wmo:42046:1,1999-03-04T07:30:00Z,27.8903,-94.0367,2.0,102.4236213,41.36870798,-99999.0,'11111222,11111222,99999999' 
TABS,ioos:station:wmo:42046:1,1999-03-04T08:00:00Z,27.8903,-94.0367,2.0,101.6376183,41.14583819,-99999.0,'11111222,11111222,99999999' 
TABS,ioos:station:wmo:42046:1,1999-03-04T08:30:00Z,27.8903,-94.0367,2.0,95.89061264,50.66754385,-99999.0,'11111222,11111222,99999999' 
TABS,ioos:station:wmo:42046:1,1999-03-04T09:00:00Z,27.8903,-94.0367,2.0,103.626963,44.1426098,-99999.0,'11111222,11111222,99999999' 
TABS,ioos:station:wmo:42046:1,1999-03-04T09:30:00Z,27.8903,-94.0367,2.0,111.1485193,40.74420204,-99999.0,'11111222,11111222,99999999' 
TABS,ioos:station:wmo:42046:1,1999-03-04T10:00:00Z,27.8903,-94.0367,2.0,106.889009,43.37061217,-99999.0,'11111222,11111222,99999999' 
TABS,ioos:station:wmo:42046:1,1999-03-04T10:30:00Z,27.8903,-94.0367,2.0,113.2805629,36.68705494,-99999.0,'11111222,11111222,99999999' 
TABS,ioos:station:wmo:42046:1,1999-03-04T11:00:00Z,27.8903,-94.0367,2.0,117.8088486,37.08274531,-99999.0,'11111222,11111222,99999999' 
TABS,ioos:station:wmo:42046:1,1999-03-04T11:30:00Z,27.8903,-94.0367,2.0,114.530753,32.75667871,-99999.0,'11111222,11111222,99999999' 
TABS,ioos:station:wmo:42046:1,1999-03-04T12:00:00Z,27.8903,-94.0367,2.0,110.3582904,33.91872639,-99999.0,'11111222,11111222,99999999' 
TABS,ioos:station:wmo:42046:1,1999-03-04T12:30:00Z,27.8903,-94.0367,2.0,106.2679961,29.27200027,-99999.0,'11111222,11111222,99999999' 
TABS,ioos:station:wmo:42046:1,1999-03-04T13:00:00Z,27.8903,-94.0367,2.0,107.1523816,25.43108334,-99999.0,'11111222,11111222,99999999' 
TABS,ioos:station:wmo:42046:1,1999-03-04T13:30:00Z,27.8903,-94.0367,2.0,103.0516348,22.58340098,-99999.0,'11111222,11111222,99999999' 
TABS,ioos:station:wmo:42046:1,1999-03-04T14:00:00Z,27.8903,-94.0367,2.0,104.5829082,25.41889061,-99999.0,'11111222,11111222,99999999' 
TABS,ioos:station:wmo:42046:1,1999-03-04T14:30:00Z,27.8903,-94.0367,2.0,82.06446819,16.65953181,-99999.0,'11111222,11111222,99999999' 
TABS,ioos:station:wmo:42046:1,1999-03-04T15:00:00Z,27.8903,-94.0367,2.0,76.30646257,20.27634089,-99999.0,'11111222,11111222,99999999' 
TABS,ioos:station:wmo:42046:1,1999-03-04T15:30:00Z,27.8903,-94.0367,2.0,71.75736083,18.84728097,-99999.0,'11111222,11111222,99999999' 
TABS,ioos:station:wmo:42046:1,1999-03-04T16:00:00Z,27.8903,-94.0367,2.0,79.63756513,17.79016582,-99999.0,'11111222,11111222,99999999' 
TABS,ioos:station:wmo:42046:1,1999-03-04T16:30:00Z,27.8903,-94.0367,2.0,63.13024975,25.2232036,-99999.0,'11111222,11111222,99999999' 
TABS,ioos:station:wmo:42046:1,1999-03-04T17:00:00Z,27.8903,-94.0367,2.0,68.1376887,34.91074333,-99999.0,'11111222,11111222,99999999' 
TABS,ioos:station:wmo:42046:1,1999-03-04T17:30:00Z,27.8903,-94.0367,2.0,60.25518826,14.51206395,-99999.0,'11111222,11111222,99999999' 
TABS,ioos:station:wmo:42046:1,1999-03-04T18:00:00Z,27.8903,-94.0367,2.0,27.51214875,21.6480946,-99999.0,'11111222,11111222,99999999' 
TABS,ioos:station:wmo:42046:1,1999-03-04T18:30:00Z,27.8903,-94.0367,2.0,48.3044994,30.6687137,-99999.0,'11111222,11111222,99999999' 
TABS,ioos:station:wmo:42046:1,1999-03-04T19:00:00Z,27.8903,-94.0367,2.0,49.80166735,35.47985344,-99999.0,'11111222,11111222,99999999' 
TABS,ioos:station:wmo:42046:1,1999-03-04T19:30:00Z,27.8903,-94.0367,2.0,42.45284892,36.59357867,-99999.0,'11111222,11111222,99999999' 
TABS,ioos:station:wmo:42046:1,1999-03-04T20:00:00Z,27.8903,-94.0367,2.0,40.30635956,33.70059347,-99999.0,'11111222,11111222,99999999' 
TABS,ioos:station:wmo:42046:1,1999-03-04T20:30:00Z,27.8903,-94.0367,2.0,48.23559677,36.33249235,-99999.0,'11111222,11111222,99999999' 
TABS,ioos:station:wmo:42046:1,1999-03-04T21:00:00Z,27.8903,-94.0367,2.0,30.90235256,31.93305497,-99999.0,'11111222,11111222,99999999' 
TABS,ioos:station:wmo:42046:1,1999-03-04T21:30:00Z,27.8903,-94.0367,2.0,44.90348535,41.93149175,-99999.0,'11111222,11111222,99999999' 
TABS,ioos:station:wmo:42046:1,1999-03-04T22:00:00Z,27.8903,-94.0367,2.0,60.5416641,37.2108855,-99999.0,'11111222,11111222,99999999' 
TABS,ioos:station:wmo:42046:1,1999-03-04T22:30:00Z,27.8903,-94.0367,2.0,48.80121419,41.59867786,-99999.0,'11111222,11111222,99999999' 
TABS,ioos:station:wmo:42046:1,1999-03-04T23:00:00Z,27.8903,-94.0367,2.0,63.24591709,40.65193722,-99999.0,'11111222,11111222,99999999' 
TABS,ioos:station:wmo:42046:1,1999-03-04T23:30:00Z,27.8903,-94.0367,2.0,48.2867406,35.76772288,-99999.0,'11111222,11111222,99999999' 
TABS,ioos:station:wmo:42046:1,1999-03-05T00:00:00Z,27.8903,-94.0367,2.0,48.88207304,39.68904131,-99999.0,'11111222,11111222,99999999' 
TABS,ioos:station:wmo:42046:1,1999-03-05T00:30:00Z,27.8903,-94.0367,2.0,71.90278573,32.19254572,-99999.0,'11111222,11111222,99999999' 
TABS,ioos:station:wmo:42046:1,1999-03-05T01:00:00Z,27.8903,-94.0367,2.0,73.91838565,34.65616828,-99999.0,'11111222,11111222,99999999' 
TABS,ioos:station:wmo:42046:1,1999-03-05T01:30:00Z,27.8903,-94.0367,2.0,83.1643698,31.92694787,-99999.0,'11111222,11111222,99999999' 
TABS,ioos:station:wmo:42046:1,1999-03-05T02:00:00Z,27.8903,-94.0367,2.0,93.48682162,27.95174413,-99999.0,'11111222,11111222,99999999' 
TABS,ioos:station:wmo:42046:1,1999-03-05T02:30:00Z,27.8903,-94.0367,2.0,80.86984487,28.35930182,-99999.0,'11111222,11111222,99999999' 
TABS,ioos:station:wmo:42046:1,1999-03-05T03:00:00Z,27.8903,-94.0367,2.0,55.50308369,25.60195305,-99999.0,'11111222,11111222,99999999' 
TABS,ioos:station:wmo:42046:1,1999-03-05T03:30:00Z,27.8903,-94.0367,2.0,80.96053833,26.73200329,-99999.0,'11111222,11111222,99999999' 
TABS,ioos:station:wmo:42046:1,1999-03-05T04:00:00Z,27.8903,-94.0367,2.0,75.24131005,38.46920847,-99999.0,'11111222,11111222,99999999' 
TABS,ioos:station:wmo:42046:1,1999-03-05T04:30:00Z,27.8903,-94.0367,2.0,71.51037067,33.1090622,-99999.0,'11111222,11111222,99999999' 
TABS,ioos:station:wmo:42046:1,1999-03-05T05:00:00Z,27.8903,-94.0367,2.0,100.5039243,33.46072324,-99999.0,'11111222,11111222,99999999' 
TABS,ioos:station:wmo:42046:1,1999-03-05T05:30:00Z,27.8903,-94.0367,2.0,119.5006556,17.4642492,-99999.0,'11111222,11111222,99999999' 
TABS,ioos:station:wmo:42046:1,1999-03-05T06:00:00Z,27.8903,-94.0367,2.0,77.99225217,32.20465805,-99999.0,'11111222,11111222,99999999' 
TABS,ioos:station:wmo:42046:1,1999-03-05T06:30:00Z,27.8903,-94.0367,2.0,81.0883379,34.21300922,-99999.0,'11111222,11111222,99999999' 
TABS,ioos:station:wmo:42046:1,1999-03-05T07:00:00Z,27.8903,-94.0367,2.0,82.29918407,32.08940635,-99999.0,'11111222,11111222,99999999' 
TABS,ioos:station:wmo:42046:1,1999-03-05T07:30:00Z,27.8903,-94.0367,2.0,84.19328667,35.58258001,-99999.0,'11111222,11111222,99999999' 
TABS,ioos:station:wmo:42046:1,1999-03-05T08:00:00Z,27.8903,-94.0367,2.0,82.95997711,33.45220471,-99999.0,'11111222,11111222,99999999' 
TABS,ioos:station:wmo:42046:1,1999-03-05T08:30:00Z,27.8903,-94.0367,2.0,75.44798377,35.0235635,-99999.0,'11111222,11111222,99999999' 
TABS,ioos:station:wmo:42046:1,1999-03-05T09:00:00Z,27.8903,-94.0367,2.0,63.96428592,38.73034986,-99999.0,'11111222,11111222,99999999' 
TABS,ioos:station:wmo:42046:1,1999-03-05T09:30:00Z,27.8903,-94.0367,2.0,77.8423781,31.81351914,-99999.0,'11111222,11111222,99999999' 
TABS,ioos:station:wmo:42046:1,1999-03-05T10:00:00Z,27.8903,-94.0367,2.0,86.53177885,23.14238536,-99999.0,'11111222,11111222,99999999' 
TABS,ioos:station:wmo:42046:1,1999-03-05T10:30:00Z,27.8903,-94.0367,2.0,96.00899191,49.67293025,-99999.0,'11111222,11111222,99999999' 
TABS,ioos:station:wmo:42046:1,1999-03-05T11:00:00Z,27.8903,-94.0367,2.0,101.9191026,38.73512618,-99999.0,'11111222,11111222,99999999' 
TABS,ioos:station:wmo:42046:1,1999-03-05T11:30:00Z,27.8903,-94.0367,2.0,99.10979937,34.73816345,-99999.0,'11111222,11111222,99999999' 